Starlink 4390

operational
NORAD ID: 53653 Int'l Des: 2022-105 Owner: SPXS Country: US Constellation: starlink
LEOCIRCULARRETROGRADESSO

Starlink 4390について

説明を読み込み中...

リアルタイム位置

3D地球を読み込み中...

次回通過

高度履歴

Altitude vs Time

uPlot chart will show altitude changes over time

軌道要素

1 53653U 22105F 25353.93985530 .00000494 00000-0 43001-4 0 9991
2 53653 97.6019 232.0990 0004235 58.3417 301.8220 15.01260770181266
Epoch: Dec 19, 2025 • Age: 9 hours

現在のステータス

高度 576.5 km
速度 7.57 km/s
衛星直下点 -35.21°S, 28.74°E
打ち上げ日 Aug 31, 2022
運用期間 3.3 years
タイプ internet

技術仕様

分類 Payload
質量 300.00 kg
乾燥質量 290.00 kg
総質量 300.00 kg
長さ 0.20 m
直径 2.80 m
スパン 9.00 m
形状 Box + pan
製造者 SPXS
バスタイプ Starlink
フェーズステータス In Orbit
所有者/国 SPXS/US

大規模コンステレーション

Loading constellations...